Flag for Germany Weather past 2 weeks in Reutlingen, Baden-Württemberg, Germany

Now
72 °F

Passing clouds.


Feels Like: 76 °F
Forecast: 48 / 69 °F
Wind: 8 mph from West

Location: Stuttgart-Echterdingen

Current Time: Jul 8, 2015 at 3:05:33 AM

Latest Report: Jul 8, 2015 at 2:20 AM


Visibility: N/A

Pressure: 29.89 "Hg

Humidity: 61%

Dew point: 57 °F

Location of ReutlingenLocation

Historic Weather in Reutlingen — Graph

°F

Reutlingen temperature yesterday

Maximum temperature yesterday: 95 °F (at 2:20 PM)
Minimum temperature yesterday: 63 °F (at 4:20 AM)
Average temperature yesterday: 80 °F

Past Weeks' High & Low Weather Summary

 TemperatureHumidityPressure
High99 °F (Jul 5, 4:20 PM)100% (Jun 24, 2:50 AM)30.27 "Hg (Jun 24, 2:50 AM)
Low46 °F (Jun 24, 4:50 AM)22% (Jul 4, 6:20 PM)29.74 "Hg (Jul 7, 7:50 PM)
Average71 °F63%30.12 "Hg
* Reported Jun 23 1:20 AM — Jul 8 1:20 AM, Reutlingen, Weather by CustomWeather, © 2015

Note: Actual official high and low records may vary slightly from our data, if they occured in-between our weather recording intervals... More about our weather records

Advertising

Reutlingen weather history for previous 24 hours

 ConditionsComfort  
Time TempWeatherWind HumidityBarometerVisibility
1:20 AM
Wed, Jul 8
73 °FPassing clouds.16 mph57%29.86 "HgN/A
12:50 AM75 °FClear.10 mph57%29.86 "Hg10 mi
12:20 AM75 °FPassing clouds.3 mph61%29.83 "HgN/A
11:20 PM
Tue, Jul 7
75 °FSprinkles. Partly cloudy.13 mph61%29.80 "HgN/A
10:50 PM77 °FSprinkles. Partly cloudy.16 mph57%29.83 "HgN/A
10:20 PM79 °FBroken clouds.15 mph54%29.83 "HgN/A
9:50 PM82 °FScattered showers. Partly sunny.15 mph48%29.80 "HgN/A
9:20 PM84 °FScattered showers. Broken clouds.15 mph48%29.77 "HgN/A
8:50 PM88 °FBroken clouds.8 mph33%29.77 "HgN/A
8:20 PM90 °FBroken clouds.5 mph31%29.74 "HgN/A
7:50 PM91 °FPassing clouds.3 mph30%29.74 "HgN/A
7:20 PM91 °FPassing clouds.6 mph28%29.77 "HgN/A
6:50 PM93 °FPassing clouds.5 mph28%29.77 "HgN/A
6:20 PM93 °FPassing clouds.7 mph26%29.77 "HgN/A
5:50 PM95 °FPassing clouds.6 mph26%29.80 "HgN/A
5:20 PM95 °FPassing clouds.7 mph28%29.83 "HgN/A
4:50 PM95 °FPassing clouds.10 mph26%29.83 "HgN/A
4:20 PM95 °FPassing clouds.9 mph26%29.83 "HgN/A
3:50 PM95 °FPassing clouds.14 mph25%29.86 "HgN/A
3:20 PM95 °FPassing clouds.12 mph25%29.86 "HgN/A
2:50 PM95 °FPassing clouds.10 mph26%29.86 "HgN/A
2:20 PM95 °FPassing clouds.10 mph25%29.89 "HgN/A
1:50 PM93 °FScattered clouds.12 mph39%29.89 "HgN/A
1:20 PM91 °FPassing clouds.8 mph41%29.89 "HgN/A
12:50 PM90 °FPassing clouds.6 mph43%29.92 "HgN/A
12:20 PM88 °FScattered clouds.2 mph46%29.92 "HgN/A
11:50 AM86 °FPartly sunny.3 mph52%29.92 "HgN/A
11:20 AM84 °FSunny.3 mph55%29.95 "Hg10 mi
10:50 AM82 °FPassing clouds.3 mph55%29.95 "HgN/A
10:20 AM81 °FPassing clouds.5 mph62%29.95 "HgN/A
9:50 AM79 °FSunny.3 mph58%29.98 "Hg10 mi
9:20 AM77 °FSunny.2 mph61%29.98 "Hg10 mi
8:50 AM73 °FSunny.2 mph69%29.98 "Hg10 mi
8:20 AM72 °FSunny.2 mph73%30.01 "Hg10 mi
7:50 AM70 °FSunny.2 mph69%30.01 "Hg10 mi
7:20 AM68 °FSunny.1 mph78%30.01 "Hg10 mi
6:50 AM64 °FSunny.2 mph83%30.01 "Hg10 mi
6:20 AM63 °FClear.1 mph88%30.01 "Hg10 mi
5:50 AM63 °FClear.1 mph83%30.01 "Hg10 mi
5:20 AM63 °FClear.No wind77%30.01 "Hg10 mi
4:50 AM63 °FClear.1 mph83%30.04 "Hg10 mi
4:20 AM63 °FClear.1 mph77%30.04 "Hg10 mi
3:50 AM64 °FClear.2 mph78%30.04 "Hg10 mi
3:20 AM64 °FClear.3 mph78%30.04 "Hg10 mi
Weather by CustomWeather, © 2015

See weather overviewHow to use our weather pages